Location: Colebrook
(42.0017°N, 73.0973°W)
Time: 08:11:25
(UTC-04:00)

ISS - Pass Details

Date: 28 September 2021
Orbit: 417 x 423 km, 51.6° (Epoch: 16 October)

Event Time Altitude Azimuth Distance (km) Brightness Sun altitude
Rises 19:34:33 0° 304° (WNW) 2,364 1.3 -11.2°
Reaches altitude 10° 19:37:10 10° 325° (NW) 1,500 -0.3 -11.7°
Maximum altitude 19:39:29 17° 9° (N) 1,144 -1.6 -12.1°
Enters shadow 19:41:32 11° 49° (NE) 1,433 -1.4 -12.5°
